EW0772 Weather Reports


Display with metric or nautical units.
time (UTC)temp
F
wind
direction
speed
MPH
gust
MPH
rain 1hr
in
rain 24hr
in
rain mn
in
humidity
%
barometer
mb
20260503014603 92 360 6.0 13.0 0.00 0.00 0.00 14 1004.9
20260503013103 93 360 8.0 12.0 0.00 0.00 0.00 13 1004.8
20260503011608 93 360 9.0 16.0 0.00 0.00 0.00 13 1004.9
20260503010121 94 360 8.0 15.0 0.00 0.00 0.00 12 1004.8
20260503004557 94 5 11.0 17.0 0.00 0.00 0.00 12 1005.0
20260503003100 94 65 10.0 17.0 0.00 0.00 0.00 12 1005.0
20260503001559 94 360 10.0 16.0 0.00 0.00 0.00 10 1005.0
20260502234552 95 360 10.0 15.0 0.00 0.00 0.00 9 1005.3
20260502233051 96 360 10.0 16.0 0.00 0.00 0.00 9 1005.4
20260502231550 96 73 8.0 17.0 0.00 0.00 0.00 8 1005.5
20260502230047 96 350 9.0 16.0 0.00 0.00 0.00 9 1005.6
20260502224546 96 360 9.0 16.0 0.00 0.00 0.00 9 1005.9
20260502223047 96 89 9.0 19.0 0.00 0.00 0.00 9 1006.1
20260502221547 96 5 11.0 22.0 0.00 0.00 0.00 9 1006.5
20260502220040 97 88 9.0 19.0 0.00 0.00 0.00 9 1006.7
20260502214547 96 82 9.0 16.0 0.00 0.00 0.00 9 1006.9
20260502213037 96 85 10.0 22.0 0.00 0.00 0.00 9 1007.0
20260502211538 96 98 8.0 17.0 0.00 0.00 0.00 9 1007.1
20260502210046 96 86 5.0 15.0 0.00 0.00 0.00 9 1007.4
20260502204532 96 83 9.0 16.0 0.00 0.00 0.00 9 1007.7
20260502203031 96 25 5.0 16.0 0.00 0.00 0.00 9 1007.9
20260502201528 96 5 6.0 11.0 0.00 0.00 0.00 9 1008.1
20260502200027 95 62 2.0 9.0 0.00 0.00 0.00 9 1008.3
20260502194525 95 81 1.0 10.0 0.00 0.00 0.00 9 1008.5
20260502193028 95 73 2.0 13.0 0.00 0.00 0.00 8 1008.6
20260502191522 96 355 1.0 7.0 0.00 0.00 0.00 9 1008.7
20260502190029 95 170 0.0 9.0 0.00 0.00 0.00 9 1009.0
20260502184521 94 145 0.0 5.0 0.00 0.00 0.00 10 1009.2
20260502183018 95 123 3.0 7.0 0.00 0.00 0.00 9 1009.3
20260502181515 93 217 0.0 4.0 0.00 0.00 0.00 10 1009.5
20260502163114 0 0.0 0.0 0.00 0.00 0.00 1010.3
20260502161554 0 0.0 0.0 0.00 0.00 0.00 1010.3
20260502151535 0 0.0 0.0 0.00 0.00 0.00 1010.3
20260502123048 0 0.0 0.0 0.00 0.00 0.00 1009.0
20260502121542 0 0.0 0.0 0.00 0.00 0.00 1009.0
20260502114555 0 0.0 0.0 0.00 0.00 0.00 1008.8
20260502113030 0 0.0 0.0 0.00 0.00 0.00 1008.8
20260502111525 0 0.0 0.0 0.00 0.00 0.00 1008.8
20260502110021 0 0.0 0.0 0.00 0.00 0.00 1008.7
20260502104520 0 0.0 0.0 0.00 0.00 0.00 1008.5
20260502103012 0 0.0 0.0 0.00 0.00 0.00 1008.5
20260502101508 0 0.0 0.0 0.00 0.00 0.00 1008.5
20260502071514 0 0.0 0.0 0.00 0.00 0.00 1008.4
20260502070010 0 0.0 0.0 0.00 0.00 0.00 1008.3
20260502064505 0 0.0 0.0 0.00 0.00 0.00 1008.2
20260502063003 0 0.0 0.0 0.00 0.00 0.00 1008.2
20260502061558 0 0.0 0.0 0.00 0.00 0.00 1008.2
20260502060053 0 0.0 0.0 0.00 0.00 0.00 1008.0
20260502054549 0 0.0 0.0 0.00 0.00 0.00 1008.1
20260502053055 84 121 0.0 7.0 0.00 0.00 0.00 23 1008.2
20260502051546 86 115 4.0 22.0 0.00 0.00 0.00 22 1007.9
20260502050050 86 109 9.0 23.0 0.00 0.00 0.00 22 1007.7
20260502044544 86 115 10.0 19.0 0.00 0.00 0.00 23 1007.6
20260502043112 86 98 3.0 13.0 0.00 0.00 0.00 23 1007.5
20260502041555 87 117 0.0 3.0 0.00 0.00 0.00 21 1007.3
20260502040043 88 106 0.0 0.0 0.00 0.00 0.00 18 1007.3
20260502034544 89 153 2.0 15.0 0.00 0.00 0.00 17 1007.0
20260502033042 89 123 0.0 14.0 0.00 0.00 0.00 16 1006.8
20260502031542 88 155 1.0 9.0 0.00 0.00 0.00 17 1006.4
20260502030047 88 138 0.0 3.0 0.00 0.00 0.00 18 1006.1
20260502024540 88 100 0.0 0.0 0.00 0.00 0.00 19 1005.9
20260502023040 89 287 0.0 0.0 0.00 0.00 0.00 18 1005.7
20260502021539 89 360 0.0 3.0 0.00 0.00 0.00 18 1005.4
20260502020039 91 360 3.0 7.0 0.00 0.00 0.00 16 1005.2